TimeMST,TemperatureF,Dew PointF,Humidity,Sea Level PressureIn,VisibilityMPH,Wind Direction,Wind SpeedMPH,Gust SpeedMPH,PrecipitationIn,Events,Conditions,WindDirDegrees,DateUTC
12:55 AM,55.4,-11.2,6,29.94,10.0,SW,10.4,-,N/A,,Clear,220,2014-04-02 07:55:00
1:55 AM,55.4,-11.2,6,29.79,10.0,East,6.9,-,N/A,,Clear,100,2014-04-02 08:55:00
2:55 AM,55.4,-9.4,7,29.77,10.0,SW,8.1,-,N/A,,Clear,220,2014-04-02 09:55:00
3:55 AM,51.8,-5.8,9,29.77,10.0,South,4.6,-,N/A,,Partly Cloudy,180,2014-04-02 10:55:00
5:55 AM,53.6,6.8,15,29.77,10.0,South,8.1,-,N/A,,Partly Cloudy,190,2014-04-02 12:55:00
6:55 AM,55.4,8.6,15,29.79,10.0,Variable,5.8,-,N/A,,Partly Cloudy,0,2014-04-02 13:55:00
7:55 AM,57.2,6.8,13,29.80,10.0,South,11.5,16.1,N/A,,Partly Cloudy,170,2014-04-02 14:55:00
8:55 AM,60.8,6.8,12,29.79,10.0,South,5.8,23.0,N/A,,Partly Cloudy,190,2014-04-02 15:55:00
9:55 AM,62.6,8.6,12,29.80,10.0,SW,26.5,31.1,N/A,,Partly Cloudy,230,2014-04-02 16:55:00
10:55 AM,64.4,6.8,10,29.79,10.0,SW,18.4,40.3,N/A,,Partly Cloudy,220,2014-04-02 17:55:00
11:55 AM,66.2,6.8,10,29.78,10.0,WSW,24.2,35.7,N/A,,Partly Cloudy,240,2014-04-02 18:55:00
12:55 PM,66.2,10.4,11,29.76,10.0,SW,32.2,43.7,N/A,,Partly Cloudy,230,2014-04-02 19:55:00
1:55 PM,66.2,12.2,12,29.74,10.0,WSW,29.9,41.4,N/A,,Partly Cloudy,250,2014-04-02 20:55:00
2:55 PM,64.4,15.8,15,29.75,10.0,WSW,23.0,40.3,N/A,,Partly Cloudy,250,2014-04-02 21:55:00
3:55 PM,64.4,10.4,12,29.75,10.0,WSW,21.9,36.8,N/A,,Partly Cloudy,250,2014-04-02 22:55:00
4:55 PM,62.6,10.4,13,29.75,10.0,West,26.5,35.7,N/A,,Partly Cloudy,260,2014-04-02 23:55:00
5:55 PM,59.0,15.8,19,29.77,10.0,West,24.2,35.7,N/A,,Partly Cloudy,260,2014-04-03 00:55:00
6:55 PM,53.6,14.0,21,29.79,10.0,West,19.6,27.6,N/A,,Partly Cloudy,270,2014-04-03 01:55:00
7:55 PM,51.8,12.2,21,29.81,10.0,West,13.8,23.0,N/A,,Partly Cloudy,270,2014-04-03 02:55:00
8:55 PM,50.0,15.8,26,29.84,10.0,NW,6.9,-,N/A,,Clear,310,2014-04-03 03:55:00
9:55 PM,48.2,19.4,32,29.85,10.0,West,17.3,-,N/A,,Clear,260,2014-04-03 04:55:00
10:55 PM,46.4,23.0,40,29.86,10.0,West,11.5,-,N/A,,Partly Cloudy,270,2014-04-03 05:55:00
11:55 PM,42.8,21.2,42,29.88,10.0,NNW,5.8,-,N/A,,Scattered Clouds,330,2014-04-03 06:55:00